QPF
0.04 0.06 0.06 0.04 0.02 0.02 0.02 0.02 0.02 0.02 0.01 0.01 0.00 0.00 0.00 0.00 0.00 0.00 0.00 0.00 0.00 0.00 0.00 0.01 0.00 0.00 0.01 0.02 0.02 0.01 0.02 0.02 0.01 0.02 0.03 0.03 0.03 0.02 0.02 0.03 0.03 0.04 0.04
0.03 0.05 0.05 0.05 0.04 0.03 0.02 0.02 0.02 0.02 0.01 0.00 0.00 0.00 0.00 0.00 0.00 0.00 0.00 0.00 0.00 0.00 0.00 0.00 0.00 0.00 0.01 0.01 0.01 0.01 0.03 0.03 0.02 0.03 0.05 0.06 0.06 0.04 0.03 0.03 0.03 0.05 0.05
0.03 0.04 0.07 0.05 0.04 0.04 0.03 0.03 0.03 0.02 0.01 0.00 0.00 0.00 0.00 0.00 0.00 0.00 0.00 0.00 0.00 0.00 0.00 0.00 0.00 0.00 0.00 0.01 0.01 0.01 0.04 0.04 0.03 0.02 0.04 0.07 0.06 0.05 0.05 0.04 0.03 0.04 0.04
0.02 0.02 0.05 0.07 0.05 0.04 0.03 0.03 0.03 0.03 0.01 0.00 0.00 0.00 0.00 0.00 0.00 0.00 0.00 0.00 0.00 0.00 0.00 0.00 0.00 0.00 0.00 0.01 0.01 0.01 0.02 0.03 0.04 0.03 0.03 0.04 0.06 0.07 0.06 0.06 0.04 0.03 0.03
0.01 0.01 0.01 0.04 0.05 0.04 0.02 0.03 0.03 0.02 0.01 0.00 0.00 0.00 0.00 0.00 0.00 0.00 0.00 0.00 0.00 0.00 0.00 0.00 0.00 0.00 0.00 0.00 0.01 0.01 0.01 0.02 0.02 0.03 0.02 0.03 0.04 0.05 0.06 0.06 0.05 0.05 0.03
0.01 0.01 0.01 0.02 0.03 0.03 0.02 0.02 0.02 0.01 0.01 0.00 0.00 0.00 0.00 0.00 0.00 0.00 0.00 0.00 0.00 0.00 0.00 0.00 0.00 0.00 0.00 0.01 0.01 0.01 0.01 0.01 0.01 0.02 0.02 0.02 0.03 0.04 0.04 0.05 0.05 0.05 0.04
0.00 0.01 0.01 0.02 0.02 0.02 0.01 0.01 0.02 0.01 0.01 0.01 0.00 0.00 0.00 0.00 0.00 0.00 0.00 0.00 0.00 0.00 0.00 0.00 0.00 0.00 0.00 0.01 0.01 0.01 0.01 0.00 0.00 0.01 0.01 0.02 0.02 0.02 0.02 0.03 0.04 0.04 0.05
0.00 0.00 0.01 0.01 0.02 0.02 0.01 0.01 0.01 0.01 0.01 0.01 0.00 0.00 0.00 0.00 0.00 0.00 0.00 0.00 0.00 0.00 0.00 0.01 0.00 0.00 0.00 0.00 0.01 0.01 0.01 0.00 0.00 0.00 0.01 0.01 0.01 0.01 0.02 0.02 0.04 0.05 0.06
0.00 0.00 0.00 0.00 0.00 0.00 0.00 0.01 0.01 0.01 0.01 0.01 0.00 0.00 0.00 0.00 0.00 0.00 0.00 0.00 0.00 0.00 0.00 0.01 0.00 0.00 0.00 0.00 0.00 0.00 0.01 0.00 0.00 0.00 0.00 0.01 0.01 0.01 0.01 0.01 0.02 0.04 0.05
0.00 0.00 0.01 0.01 0.00 0.00 0.00 0.00 0.01 0.01 0.01 0.00 0.00 0.00 0.00 0.00 0.00 0.00 0.00 0.00 0.00 0.00 0.00 0.01 0.00 0.00 0.00 0.00 0.00 0.00 0.00 0.00 0.01 0.01 0.00 0.00 0.01 0.01 0.01 0.01 0.01 0.02 0.03
0.00 0.00 0.00 0.00 0.00 0.00 0.00 0.00 0.00 0.01 0.01 0.00 0.00 0.00 0.00 0.00 0.00 0.00 0.00 0.00 0.00 0.00 0.00 0.00 0.00 0.00 0.00 0.00 0.00 0.00 0.00 0.01 0.01 0.01 0.00 0.00 0.00 0.00 0.01 0.01 0.01 0.02 0.02
0.00 0.00 0.00 0.00 0.01 0.00 0.00 0.00 0.00 0.00 0.00 0.00 0.00 0.00 0.00 0.00 0.00 0.00 0.00 0.00 0.00 0.00 0.00 0.00 0.00 0.00 0.00 0.01 0.00 0.00 0.00 0.01 0.02 0.02 0.02 0.01 0.00 0.00 0.00 0.01 0.01 0.01 0.01
0.00 0.00 0.00 0.01 0.01 0.00 0.00 0.00 0.00 0.00 0.00 0.00 0.00 0.00 0.00 0.00 0.00 0.00 0.00 0.00 0.00 0.00 0.00 0.00 0.00 0.00 0.00 0.01 0.01 0.00 0.00 0.01 0.01 0.01 0.02 0.02 0.01 0.01 0.00 0.01 0.01 0.01 0.00
0.00 0.00 0.00 0.00 0.01 0.00 0.00 0.00 0.00 0.00 0.00 0.00 0.00 0.00 0.00 0.00 0.00 0.00 0.00 0.00 0.00 0.00 0.00 0.00 0.00 0.00 0.00 0.00 0.00 0.00 0.01 0.00 0.00 0.00 0.01 0.01 0.01 0.01 0.01 0.00 0.00 0.00 0.00
0.00 0.00 0.00 0.00 0.00 0.00 0.00 0.00 0.00 0.00 0.00 0.00 0.00 0.00 0.00 0.00 0.00 0.00 0.00 0.00 0.00 0.00 0.00 0.00 0.00 0.00 0.00 0.00 0.00 0.00 0.01 0.01 0.00 0.00 0.01 0.01 0.01 0.03 0.02 0.01 0.01 0.01 0.01
0.00 0.00 0.00 0.00 0.00 0.00 0.00 0.00 0.00 0.00 0.00 0.00 0.00 0.00 0.00 0.00 0.00 0.00 0.00 0.00 0.00 0.00 0.00 0.00 0.00 0.00 0.00 0.00 0.00 0.00 0.00 0.00 0.01 0.00 0.00 0.00 0.00 0.01 0.01 0.02 0.02 0.02 0.02
0.00 0.00 0.00 0.00 0.00 0.00 0.00 0.00 0.00 0.00 0.00 0.00 0.00 0.00 0.00 0.00 0.00 0.00 0.00 0.00 0.00 0.00 0.00 0.00 0.00 0.00 0.00 0.00 0.00 0.00 0.00 0.00 0.00 0.00 0.00 0.00 0.00 0.00 0.00 0.00 0.01 0.01 0.01
0.00 0.00 0.00 0.00 0.00 0.00 0.00 0.00 0.00 0.00 0.00 0.00 0.00 0.00 0.00 0.00 0.00 0.00 0.00 0.00 0.00 0.01 0.00 0.00 0.00 0.00 0.00 0.00 0.00 0.00 0.00 0.00 0.00 0.00 0.00 0.00 0.00 0.00 0.00 0.00 0.00 0.00 0.00
0.00 0.00 0.00 0.00 0.00 0.00 0.01 0.01 0.00 0.00 0.00 0.00 0.00 0.00 0.00 0.00 0.00 0.00 0.00 0.00 0.00 0.01 0.00 0.00 0.00 0.00 0.00 0.00 0.00 0.00 0.00 0.00 0.00 0.00 0.00 0.00 0.00 0.00 0.00 0.00 0.00 0.00 0.00
0.00 0.00 0.01 0.01 0.01 0.00 0.00 0.00 0.00 0.00 0.00 0.00 0.00 0.01 0.01 0.01 0.01 0.00 0.00 0.00 0.00 0.00 0.00 0.00 0.00 0.00 0.00 0.00 0.00 0.00 0.00 0.00 0.00 0.00 0.00 0.00 0.00 0.00 0.00 0.00 0.00 0.00 0.00
0.00 0.00 0.01 0.02 0.01 0.00 0.00 0.00 0.00 0.00 0.00 0.00 0.00 0.01 0.02 0.02 0.01 0.00 0.00 0.00 0.00 0.00 0.00 0.00 0.00 0.00 0.00 0.00 0.00 0.00 0.00 0.00 0.00 0.00 0.00 0.00 0.00 0.00 0.00 0.00 0.00 0.00 0.00
0.00 0.00 0.01 0.01 0.01 0.01 0.01 0.01 0.01 0.01 0.00 0.00 0.00 0.00 0.00 0.01 0.00 0.00 0.00 0.00 0.00 0.00 0.00 0.00 0.00 0.00 0.00 0.00 0.00 0.00 0.00 0.00 0.00 0.00 0.00 0.00 0.00 0.00 0.00 0.00 0.00 0.00 0.01
0.00 0.00 0.00 0.01 0.01 0.02 0.03 0.03 0.03 0.03 0.01 0.00 0.00 0.00 0.00 0.00 0.00 0.00 0.00 0.00 0.00 0.00 0.00 0.00 0.00 0.00 0.00 0.00 0.00 0.00 0.00 0.00 0.00 0.00 0.00 0.00 0.00 0.00 0.00 0.00 0.00 0.00 0.01
0.00 0.00 0.00 0.01 0.01 0.01 0.02 0.03 0.04 0.04 0.02 0.00 0.00 0.00 0.00 0.00 0.00 0.00 0.00 0.00 0.00 0.00 0.00 0.00 0.00 0.00 0.00 0.00 0.00 0.00 0.00 0.00 0.00 0.00 0.00 0.00 0.00 0.00 0.00 0.00 0.00 0.00 0.00
0.00 0.00 0.00 0.00 0.00 0.00 0.00 0.01 0.02 0.04 0.03 0.01 0.00 0.00 0.00 0.01 0.00 0.00 0.00 0.00 0.00 0.00 0.00 0.00 0.00 0.00 0.00 0.00 0.00 0.00 0.00 0.00 0.00 0.00 0.00 0.00 0.00 0.00 0.00 0.00 0.00 0.00 0.00
0.00 0.00 0.00 0.00 0.00 0.00 0.00 0.00 0.00 0.01 0.01 0.01 0.00 0.00 0.00 0.01 0.01 0.01 0.01 0.00 0.00 0.00 0.00 0.00 0.00 0.00 0.00 0.00 0.00 0.00 0.00 0.00 0.00 0.00 0.00 0.00 0.00 0.00 0.00 0.00 0.00 0.00 0.00
MSLP
1013.72 1013.96 1014.21 1014.46 1014.71 1014.96 1015.24 1015.53 1015.83 1016.13 1016.41 1016.64 1016.79 1016.86 1016.86 1016.81 1016.73 1016.66 1016.62 1016.62 1016.65 1016.67 1016.67 1016.61 1016.46 1016.23 1015.93 1015.59 1015.25 1014.95 1014.72 1014.55 1014.44 1014.36 1014.26 1014.12 1013.91 1013.65 1013.36 1013.09 1012.88 1012.80 1012.84
1013.70 1014.05 1014.40 1014.72 1015.00 1015.27 1015.52 1015.79 1016.07 1016.36 1016.64 1016.87 1017.04 1017.13 1017.14 1017.09 1017.00 1016.92 1016.86 1016.85 1016.87 1016.91 1016.93 1016.89 1016.78 1016.58 1016.30 1015.97 1015.62 1015.30 1015.03 1014.83 1014.70 1014.60 1014.49 1014.36 1014.17 1013.94 1013.68 1013.44 1013.27 1013.21 1013.27
1013.75 1014.20 1014.63 1015.00 1015.31 1015.56 1015.80 1016.03 1016.28 1016.55 1016.83 1017.08 1017.27 1017.39 1017.42 1017.38 1017.29 1017.19 1017.11 1017.07 1017.08 1017.11 1017.14 1017.13 1017.05 1016.88 1016.62 1016.30 1015.96 1015.63 1015.34 1015.13 1014.98 1014.87 1014.78 1014.66 1014.51 1014.32 1014.12 1013.93 1013.81 1013.78 1013.84
1013.86 1014.40 1014.90 1015.32 1015.63 1015.86 1016.06 1016.25 1016.47 1016.72 1017.00 1017.26 1017.49 1017.64 1017.71 1017.68 1017.60 1017.49 1017.39 1017.32 1017.29 1017.30 1017.32 1017.32 1017.26 1017.11 1016.89 1016.60 1016.27 1015.95 1015.68 1015.46 1015.31 1015.21 1015.13 1015.04 1014.94 1014.80 1014.65 1014.52 1014.43 1014.42 1014.48
1014.02 1014.65 1015.21 1015.64 1015.95 1016.16 1016.31 1016.46 1016.64 1016.87 1017.15 1017.44 1017.70 1017.89 1017.99 1017.99 1017.92 1017.79 1017.66 1017.56 1017.49 1017.47 1017.47 1017.46 1017.41 1017.30 1017.11 1016.85 1016.57 1016.28 1016.02 1015.82 1015.69 1015.60 1015.55 1015.49 1015.42 1015.33 1015.22 1015.13 1015.07 1015.06 1015.10
1014.22 1014.92 1015.52 1015.97 1016.28 1016.46 1016.57 1016.66 1016.81 1017.02 1017.28 1017.59 1017.87 1018.10 1018.24 1018.27 1018.20 1018.07 1017.92 1017.77 1017.66 1017.60 1017.57 1017.56 1017.52 1017.43 1017.28 1017.07 1016.84 1016.59 1016.38 1016.21 1016.09 1016.03 1016.00 1015.97 1015.92 1015.86 1015.77 1015.69 1015.63 1015.61 1015.63
1014.42 1015.18 1015.81 1016.28 1016.58 1016.73 1016.80 1016.86 1016.96 1017.14 1017.40 1017.70 1018.00 1018.26 1018.42 1018.47 1018.42 1018.28 1018.11 1017.93 1017.78 1017.69 1017.63 1017.60 1017.57 1017.51 1017.40 1017.25 1017.07 1016.89 1016.72 1016.59 1016.50 1016.46 1016.45 1016.43 1016.40 1016.34 1016.25 1016.15 1016.07 1016.02 1015.99
1014.60 1015.39 1016.06 1016.54 1016.83 1016.97 1017.01 1017.03 1017.09 1017.24 1017.47 1017.77 1018.07 1018.34 1018.52 1018.59 1018.54 1018.41 1018.22 1018.02 1017.85 1017.73 1017.65 1017.62 1017.60 1017.57 1017.51 1017.42 1017.29 1017.16 1017.04 1016.95 1016.90 1016.88 1016.87 1016.86 1016.82 1016.75 1016.64 1016.51 1016.38 1016.27 1016.19
1014.73 1015.55 1016.23 1016.72 1017.01 1017.14 1017.17 1017.16 1017.20 1017.31 1017.52 1017.79 1018.09 1018.35 1018.54 1018.62 1018.58 1018.45 1018.27 1018.07 1017.89 1017.76 1017.68 1017.66 1017.66 1017.66 1017.64 1017.59 1017.52 1017.44 1017.36 1017.31 1017.28 1017.27 1017.26 1017.25 1017.20 1017.10 1016.96 1016.78 1016.59 1016.42 1016.29
1014.78 1015.61 1016.30 1016.80 1017.10 1017.24 1017.27 1017.26 1017.28 1017.37 1017.56 1017.80 1018.08 1018.33 1018.52 1018.61 1018.59 1018.48 1018.31 1018.12 1017.96 1017.84 1017.78 1017.77 1017.79 1017.82 1017.84 1017.84 1017.81 1017.76 1017.71 1017.68 1017.66 1017.66 1017.65 1017.63 1017.56 1017.45 1017.27 1017.05 1016.81 1016.57 1016.37
1014.75 1015.57 1016.26 1016.77 1017.09 1017.25 1017.31 1017.32 1017.35 1017.44 1017.61 1017.84 1018.10 1018.35 1018.53 1018.63 1018.63 1018.55 1018.42 1018.27 1018.14 1018.05 1018.02 1018.03 1018.08 1018.14 1018.18 1018.20 1018.19 1018.16 1018.13 1018.10 1018.09 1018.09 1018.08 1018.06 1017.98 1017.85 1017.66 1017.41 1017.12 1016.84 1016.58
1014.64 1015.42 1016.10 1016.63 1016.99 1017.19 1017.29 1017.35 1017.42 1017.53 1017.71 1017.94 1018.20 1018.45 1018.64 1018.76 1018.80 1018.76 1018.67 1018.57 1018.49 1018.45 1018.45 1018.49 1018.56 1018.63 1018.69 1018.71 1018.71 1018.69 1018.65 1018.62 1018.60 1018.60 1018.59 1018.57 1018.50 1018.38 1018.18 1017.92 1017.62 1017.29 1016.98
1014.44 1015.19 1015.85 1016.39 1016.79 1017.05 1017.23 1017.36 1017.49 1017.66 1017.88 1018.14 1018.41 1018.68 1018.90 1019.05 1019.13 1019.14 1019.11 1019.07 1019.04 1019.04 1019.08 1019.15 1019.23 1019.31 1019.36 1019.38 1019.37 1019.33 1019.28 1019.24 1019.21 1019.20 1019.20 1019.19 1019.14 1019.04 1018.86 1018.62 1018.31 1017.97 1017.64
1014.17 1014.87 1015.51 1016.07 1016.51 1016.85 1017.11 1017.33 1017.56 1017.81 1018.09 1018.41 1018.73 1019.03 1019.29 1019.49 1019.62 1019.69 1019.72 1019.74 1019.76 1019.81 1019.87 1019.96 1020.05 1020.12 1020.16 1020.16 1020.12 1020.06 1019.99 1019.93 1019.89 1019.88 1019.88 1019.89 1019.87 1019.80 1019.67 1019.46 1019.18 1018.85 1018.50
1013.85 1014.49 1015.11 1015.67 1016.15 1016.56 1016.92 1017.26 1017.59 1017.94 1018.32 1018.71 1019.10 1019.46 1019.78 1020.03 1020.22 1020.35 1020.44 1020.51 1020.57 1020.65 1020.74 1020.83 1020.91 1020.97 1020.99 1020.97 1020.90 1020.82 1020.72 1020.64 1020.59 1020.58 1020.59 1020.62 1020.63 1020.60 1020.51 1020.35 1020.11 1019.81 1019.47
1013.50 1014.08 1014.66 1015.21 1015.73 1016.21 1016.66 1017.10 1017.55 1018.02 1018.50 1018.98 1019.45 1019.88 1020.26 1020.58 1020.82 1021.01 1021.15 1021.26 1021.37 1021.46 1021.56 1021.65 1021.72 1021.76 1021.76 1021.71 1021.63 1021.52 1021.41 1021.32 1021.26 1021.24 1021.26 1021.30 1021.34 1021.34 1021.30 1021.18 1020.99 1020.74 1020.43
1013.15 1013.66 1014.19 1014.73 1015.26 1015.79 1016.32 1016.86 1017.41 1017.98 1018.57 1019.15 1019.70 1020.21 1020.66 1021.04 1021.34 1021.57 1021.75 1021.90 1022.02 1022.13 1022.23 1022.31 1022.37 1022.40 1022.38 1022.32 1022.23 1022.11 1022.00 1021.90 1021.84 1021.82 1021.84 1021.88 1021.92 1021.95 1021.94 1021.86 1021.71 1021.50 1021.23
1012.84 1013.28 1013.75 1014.25 1014.78 1015.33 1015.91 1016.52 1017.16 1017.82 1018.49 1019.16 1019.79 1020.37 1020.89 1021.31 1021.66 1021.94 1022.15 1022.32 1022.45 1022.57 1022.67 1022.74 1022.79 1022.81 1022.80 1022.74 1022.66 1022.55 1022.45 1022.36 1022.30 1022.27 1022.28 1022.31 1022.35 1022.38 1022.37 1022.31 1022.19 1022.02 1021.79
1012.62 1012.97 1013.37 1013.82 1014.32 1014.87 1015.47 1016.12 1016.82 1017.55 1018.29 1019.02 1019.72 1020.35 1020.91 1021.39 1021.77 1022.08 1022.31 1022.50 1022.64 1022.76 1022.86 1022.93 1022.99 1023.02 1023.02 1022.98 1022.93 1022.85 1022.77 1022.70 1022.65 1022.62 1022.61 1022.62 1022.63 1022.63 1022.60 1022.53 1022.42 1022.27 1022.08
1012.52 1012.79 1013.11 1013.50 1013.95 1014.48 1015.08 1015.74 1016.47 1017.23 1018.01 1018.78 1019.51 1020.19 1020.78 1021.29 1021.70 1022.02 1022.28 1022.47 1022.62 1022.75 1022.85 1022.94 1023.01 1023.06 1023.09 1023.10 1023.08 1023.05 1023.01 1022.96 1022.92 1022.88 1022.85 1022.83 1022.79 1022.75 1022.68 1022.59 1022.46 1022.31 1022.15
1012.57 1012.76 1013.01 1013.33 1013.73 1014.22 1014.80 1015.45 1016.17 1016.94 1017.73 1018.52 1019.27 1019.96 1020.57 1021.09 1021.51 1021.85 1022.12 1022.32 1022.48 1022.62 1022.74 1022.84 1022.94 1023.03 1023.10 1023.15 1023.19 1023.20 1023.20 1023.18 1023.15 1023.11 1023.06 1022.99 1022.91 1022.81 1022.69 1022.55 1022.39 1022.23 1022.07
1012.78 1012.90 1013.09 1013.36 1013.71 1014.16 1014.70 1015.33 1016.03 1016.78 1017.56 1018.33 1019.07 1019.76 1020.37 1020.89 1021.31 1021.66 1021.93 1022.14 1022.32 1022.47 1022.60 1022.73 1022.86 1022.98 1023.10 1023.20 1023.29 1023.35 1023.39 1023.40 1023.38 1023.33 1023.25 1023.14 1023.01 1022.85 1022.67 1022.49 1022.29 1022.11 1021.93
1013.14 1013.22 1013.37 1013.59 1013.91 1014.32 1014.83 1015.42 1016.09 1016.81 1017.55 1018.29 1019.01 1019.67 1020.25 1020.76 1021.18 1021.52 1021.79 1022.02 1022.20 1022.36 1022.51 1022.66 1022.81 1022.97 1023.12 1023.27 1023.39 1023.49 1023.56 1023.59 1023.58 1023.52 1023.42 1023.28 1023.10 1022.90 1022.67 1022.44 1022.21 1022.00 1021.81
1013.62 1013.69 1013.82 1014.03 1014.32 1014.71 1015.18 1015.74 1016.37 1017.04 1017.74 1018.43 1019.10 1019.72 1020.27 1020.75 1021.15 1021.48 1021.75 1021.97 1022.16 1022.32 1022.48 1022.65 1022.81 1022.99 1023.16 1023.33 1023.48 1023.60 1023.68 1023.72 1023.71 1023.64 1023.52 1023.35 1023.15 1022.91 1022.65 1022.39 1022.14 1021.91 1021.71
1014.21 1014.29 1014.42 1014.63 1014.92 1015.29 1015.74 1016.26 1016.84 1017.46 1018.10 1018.74 1019.35 1019.91 1020.41 1020.85 1021.23 1021.53 1021.78 1021.99 1022.17 1022.34 1022.49 1022.66 1022.82 1022.99 1023.17 1023.33 1023.48 1023.60 1023.69 1023.72 1023.70 1023.62 1023.49 1023.31 1023.09 1022.83 1022.56 1022.29 1022.04 1021.80 1021.60
1014.86 1014.97 1015.13 1015.35 1015.64 1016.00 1016.43 1016.91 1017.44 1018.00 1018.57 1019.14 1019.68 1020.18 1020.62 1021.02 1021.34 1021.62 1021.85 1022.03 1022.19 1022.34 1022.48 1022.62 1022.77 1022.92 1023.07 1023.21 1023.34 1023.44 1023.51 1023.52 1023.49 1023.40 1023.26 1023.07 1022.84 1022.58 1022.32 1022.06 1021.81 1021.59 1021.39
Thickness
5742 5745 5745 5746 5746 5746 5745 5743 5742 5741 5740 5737 5736 5734 5733 5734 5733 5732 5730 5728 5727 5726 5726 5724 5722 5721 5718 5717 5716 5714 5712 5712 5713 5710 5709 5713 5716 5715 5716 5718 5718 5720 5721
5739 5740 5742 5743 5743 5742 5742 5742 5740 5738 5737 5735 5735 5734 5733 5732 5731 5729 5728 5726 5725 5724 5724 5722 5720 5719 5717 5715 5713 5711 5708 5708 5710 5706 5702 5698 5702 5708 5714 5714 5715 5716 5717
5738 5738 5739 5739 5740 5740 5739 5739 5738 5736 5735 5735 5734 5733 5731 5729 5727 5726 5725 5724 5723 5722 5722 5721 5720 5718 5716 5713 5712 5710 5706 5703 5706 5707 5701 5693 5689 5696 5705 5709 5712 5713 5714
5740 5738 5737 5736 5737 5738 5739 5738 5737 5736 5735 5734 5732 5729 5725 5722 5724 5724 5723 5723 5722 5721 5720 5720 5719 5717 5715 5713 5711 5710 5707 5704 5701 5703 5704 5702 5700 5693 5692 5700 5706 5710 5710
5739 5736 5736 5735 5736 5737 5737 5737 5735 5734 5734 5733 5730 5728 5725 5724 5724 5723 5722 5721 5721 5720 5719 5719 5718 5716 5714 5712 5710 5709 5707 5705 5702 5700 5700 5700 5700 5699 5693 5690 5696 5701 5705
5738 5736 5736 5735 5734 5734 5734 5733 5732 5731 5731 5731 5729 5726 5723 5722 5721 5719 5718 5718 5718 5718 5718 5718 5716 5714 5713 5711 5709 5708 5706 5704 5703 5701 5700 5697 5695 5694 5693 5690 5691 5693 5699
5736 5733 5731 5730 5729 5729 5729 5730 5728 5727 5728 5728 5727 5725 5723 5722 5719 5718 5716 5716 5715 5714 5715 5715 5714 5712 5711 5710 5709 5707 5705 5704 5702 5700 5699 5699 5697 5697 5695 5691 5689 5691 5695
5735 5733 5731 5729 5728 5728 5728 5727 5726 5725 5725 5725 5725 5724 5722 5720 5718 5717 5716 5715 5714 5713 5713 5713 5711 5710 5709 5708 5707 5705 5703 5703 5701 5700 5699 5698 5697 5697 5695 5692 5688 5685 5688
5735 5733 5731 5729 5728 5727 5727 5727 5724 5723 5723 5723 5722 5721 5720 5718 5717 5716 5716 5714 5714 5713 5712 5711 5709 5708 5707 5705 5704 5702 5701 5700 5699 5698 5698 5696 5696 5696 5695 5694 5691 5684 5679
5735 5733 5730 5729 5727 5727 5727 5726 5724 5722 5722 5721 5720 5718 5717 5716 5715 5714 5712 5712 5711 5711 5709 5708 5706 5705 5703 5703 5701 5699 5698 5697 5696 5696 5695 5694 5694 5693 5693 5692 5690 5688 5683
5734 5731 5729 5728 5727 5725 5725 5723 5721 5720 5719 5718 5717 5716 5714 5713 5712 5711 5710 5709 5709 5708 5706 5705 5703 5701 5700 5699 5697 5696 5695 5694 5693 5693 5692 5691 5691 5690 5690 5689 5688 5686 5684
5734 5731 5728 5726 5724 5722 5722 5720 5719 5718 5716 5716 5714 5712 5711 5710 5708 5707 5707 5707 5706 5705 5703 5701 5699 5698 5696 5695 5693 5692 5691 5690 5689 5689 5688 5687 5687 5686 5685 5685 5684 5683 5683
5732 5729 5726 5723 5721 5720 5719 5718 5717 5715 5714 5713 5710 5708 5707 5705 5704 5704 5704 5703 5702 5701 5699 5697 5695 5693 5692 5691 5689 5689 5687 5687 5686 5685 5684 5683 5681 5679 5679 5679 5678 5678 5679
5730 5727 5723 5721 5719 5719 5718 5716 5714 5713 5711 5709 5706 5703 5702 5701 5700 5700 5699 5698 5698 5696 5695 5693 5691 5689 5687 5685 5684 5683 5682 5682 5681 5680 5679 5678 5676 5674 5673 5673 5672 5672 5671
5728 5725 5722 5719 5718 5717 5715 5713 5711 5710 5708 5705 5702 5699 5698 5697 5696 5695 5694 5693 5692 5691 5690 5688 5686 5684 5682 5679 5677 5676 5677 5675 5674 5674 5673 5672 5671 5669 5668 5667 5665 5664 5662
5727 5725 5723 5719 5717 5715 5712 5710 5708 5706 5704 5701 5697 5696 5694 5692 5690 5689 5688 5687 5686 5685 5684 5682 5680 5677 5675 5673 5671 5670 5669 5668 5667 5666 5666 5665 5664 5662 5661 5660 5659 5658 5656
5727 5725 5723 5721 5718 5716 5712 5708 5706 5704 5701 5697 5694 5691 5689 5686 5685 5684 5683 5681 5680 5679 5677 5675 5673 5670 5667 5667 5665 5664 5662 5661 5660 5659 5658 5658 5656 5653 5652 5652 5652 5651 5650
5726 5725 5723 5721 5719 5716 5712 5708 5705 5701 5697 5693 5690 5687 5684 5681 5680 5678 5676 5676 5674 5672 5670 5669 5667 5664 5661 5660 5658 5657 5656 5655 5654 5653 5651 5648 5645 5644 5643 5643 5643 5642 5642
5727 5725 5724 5721 5718 5714 5710 5706 5701 5698 5694 5689 5686 5683 5680 5677 5674 5672 5670 5670 5669 5666 5665 5663 5661 5657 5654 5653 5651 5650 5648 5647 5646 5645 5642 5639 5636 5635 5634 5633 5632 5632 5632
5725 5723 5721 5719 5714 5711 5708 5702 5697 5693 5689 5686 5683 5680 5676 5672 5669 5666 5665 5664 5662 5660 5658 5656 5655 5652 5648 5645 5643 5641 5639 5638 5637 5635 5633 5630 5628 5626 5624 5622 5621 5620 5621
5722 5719 5716 5712 5709 5707 5704 5698 5693 5689 5686 5683 5679 5675 5671 5668 5665 5662 5660 5658 5656 5653 5651 5649 5647 5645 5641 5637 5635 5632 5628 5626 5625 5624 5622 5620 5619 5617 5615 5613 5611 5611 5611
5715 5713 5709 5705 5704 5702 5698 5692 5687 5685 5682 5678 5674 5670 5666 5664 5661 5656 5653 5651 5648 5645 5642 5640 5638 5636 5633 5630 5626 5623 5619 5617 5614 5612 5611 5610 5609 5608 5606 5604 5603 5602 5601
5708 5706 5702 5698 5696 5694 5691 5684 5681 5680 5676 5671 5667 5664 5661 5658 5655 5650 5646 5643 5640 5636 5633 5631 5627 5625 5623 5620 5617 5613 5610 5607 5604 5602 5602 5600 5599 5598 5596 5595 5594 5592 5589
5701 5699 5695 5691 5687 5686 5684 5680 5676 5674 5670 5665 5661 5658 5654 5650 5647 5642 5639 5635 5631 5627 5624 5621 5617 5614 5612 5608 5605 5601 5599 5596 5594 5591 5590 5589 5588 5587 5586 5585 5583 5580 5578
5695 5692 5688 5684 5682 5680 5677 5674 5670 5667 5661 5657 5654 5650 5646 5642 5637 5633 5629 5626 5622 5618 5614 5610 5607 5603 5599 5596 5593 5589 5587 5584 5582 5580 5579 5577 5576 5575 5573 5572 5570 5568 5565
5689 5685 5682 5679 5676 5673 5670 5667 5663 5659 5655 5650 5645 5641 5636 5632 5628 5623 5619 5616 5613 5609 5605 5601 5597 5593 5590 5586 5583 5580 5577 5574 5571 5567 5565 5564 5563 5561 5560 5557 5556 5553 5550